Year,Month,Day,Hour,Minute,Value (Times are PST for temperature in C)
2008,05,17,00,00,13.20
2008,05,17,00,01,13.20
2008,05,17,00,02,13.20
2008,05,17,00,03,13.10
2008,05,17,00,04,13.10
2008,05,17,00,05,13.10
2008,05,17,00,06,13.10
2008,05,17,00,07,13.10
2008,05,17,00,08,13.10
2008,05,17,00,09,13.00
2008,05,17,00,10,13.00
2008,05,17,00,11,13.00
2008,05,17,00,12,13.00
2008,05,17,00,13,13.00
2008,05,17,00,14,13.00
2008,05,17,00,15,13.00
2008,05,17,00,16,13.00
2008,05,17,00,17,13.00
2008,05,17,00,18,12.90
2008,05,17,00,19,12.90
2008,05,17,00,20,12.90
2008,05,17,00,21,12.90
2008,05,17,00,22,12.80
2008,05,17,00,23,12.80
2008,05,17,00,24,12.80
2008,05,17,00,25,12.80
2008,05,17,00,26,12.80
2008,05,17,00,27,12.80
2008,05,17,00,28,12.80
2008,05,17,00,29,12.80
2008,05,17,00,30,12.80
2008,05,17,00,31,12.80
2008,05,17,00,32,12.80
2008,05,17,00,33,12.80
2008,05,17,00,34,12.80
2008,05,17,00,35,12.80
2008,05,17,00,36,12.80
2008,05,17,00,37,12.80
2008,05,17,00,38,12.80
2008,05,17,00,39,12.80
2008,05,17,00,40,12.80
2008,05,17,00,41,12.80
2008,05,17,00,42,12.80
2008,05,17,00,43,12.80
2008,05,17,00,44,12.80
2008,05,17,00,45,12.80
2008,05,17,00,46,12.80
2008,05,17,00,47,12.80
2008,05,17,00,48,12.80
2008,05,17,00,49,12.80
2008,05,17,00,50,12.70
2008,05,17,00,51,12.70
2008,05,17,00,52,12.70
2008,05,17,00,53,12.70
2008,05,17,00,54,12.80
2008,05,17,00,55,12.80
2008,05,17,00,56,12.80
2008,05,17,00,57,12.80
2008,05,17,00,58,12.80
2008,05,17,00,59,12.70
2008,05,17,01,00,12.70
2008,05,17,01,01,12.70
2008,05,17,01,02,12.70
2008,05,17,01,03,12.70
2008,05,17,01,04,12.70
2008,05,17,01,05,12.70
2008,05,17,01,06,12.60
2008,05,17,01,07,12.60
2008,05,17,01,08,12.50
2008,05,17,01,09,12.50
2008,05,17,01,10,12.40
2008,05,17,01,11,12.30
2008,05,17,01,12,12.30
2008,05,17,01,13,12.30
2008,05,17,01,14,12.30
2008,05,17,01,15,12.20
2008,05,17,01,16,12.20
2008,05,17,01,17,12.20
2008,05,17,01,18,12.20
2008,05,17,01,19,12.10
2008,05,17,01,20,12.10
2008,05,17,01,21,12.10
2008,05,17,01,22,12.10
2008,05,17,01,23,12.10
2008,05,17,01,24,12.20
2008,05,17,01,25,12.10
2008,05,17,01,26,12.10
2008,05,17,01,27,12.10
2008,05,17,01,28,12.10
2008,05,17,01,29,12.10
2008,05,17,01,30,12.00
2008,05,17,01,31,12.00
2008,05,17,01,32,12.00
2008,05,17,01,33,12.00
2008,05,17,01,34,12.00
2008,05,17,01,35,12.00
2008,05,17,01,36,12.00
2008,05,17,01,37,12.00
2008,05,17,01,38,12.00
2008,05,17,01,39,12.00
2008,05,17,01,40,12.00
2008,05,17,01,41,12.00
2008,05,17,01,42,12.00
2008,05,17,01,43,12.00
2008,05,17,01,44,12.00
2008,05,17,01,45,12.00
2008,05,17,01,46,12.00
2008,05,17,01,47,12.00
2008,05,17,01,48,12.00
2008,05,17,01,49,12.00
2008,05,17,01,50,12.00
2008,05,17,01,51,12.00
2008,05,17,01,52,12.00
2008,05,17,01,53,12.00
2008,05,17,01,54,12.00
2008,05,17,01,55,12.00
2008,05,17,01,56,12.00
2008,05,17,01,57,12.00
2008,05,17,01,58,12.10
2008,05,17,01,59,12.10
2008,05,17,02,00,12.10
2008,05,17,02,01,12.20
2008,05,17,02,02,12.20
2008,05,17,02,03,12.30
2008,05,17,02,04,12.30
2008,05,17,02,05,12.40
2008,05,17,02,06,12.40
2008,05,17,02,07,12.50
2008,05,17,02,08,12.60
2008,05,17,02,09,12.70
2008,05,17,02,10,12.80
2008,05,17,02,11,12.80
2008,05,17,02,12,12.80
2008,05,17,02,13,12.80
2008,05,17,02,14,12.90
2008,05,17,02,15,12.90
2008,05,17,02,16,13.00
2008,05,17,02,17,13.00
2008,05,17,02,18,13.10
2008,05,17,02,19,13.10
2008,05,17,02,20,13.10
2008,05,17,02,21,13.20
2008,05,17,02,22,13.20
2008,05,17,02,23,13.20
2008,05,17,02,24,13.30
2008,05,17,02,25,13.30
2008,05,17,02,26,13.30
2008,05,17,02,27,13.30
2008,05,17,02,28,13.30
2008,05,17,02,29,13.30
2008,05,17,02,30,13.30
2008,05,17,02,31,13.30
2008,05,17,02,32,13.30
2008,05,17,02,33,13.30
2008,05,17,02,34,13.30
2008,05,17,02,35,13.30
2008,05,17,02,36,13.30
2008,05,17,02,37,13.30
2008,05,17,02,38,13.30
2008,05,17,02,39,13.40
2008,05,17,02,40,13.40
2008,05,17,02,41,13.40
2008,05,17,02,42,13.40
2008,05,17,02,43,13.40
2008,05,17,02,44,13.40
2008,05,17,02,45,13.40
2008,05,17,02,46,13.40
2008,05,17,02,47,13.40
2008,05,17,02,48,13.40
2008,05,17,02,49,13.40
2008,05,17,02,50,13.30
2008,05,17,02,51,13.30
2008,05,17,02,52,13.30
2008,05,17,02,53,13.30
2008,05,17,02,54,13.30
2008,05,17,02,55,13.30
2008,05,17,02,56,13.30
2008,05,17,02,57,13.30
2008,05,17,02,58,13.30
2008,05,17,02,59,13.30
2008,05,17,03,00,13.30
2008,05,17,03,01,13.30
2008,05,17,03,02,13.30
2008,05,17,03,03,13.40
2008,05,17,03,04,13.40
2008,05,17,03,05,13.40
2008,05,17,03,06,13.30
2008,05,17,03,07,13.30
2008,05,17,03,08,13.30
2008,05,17,03,09,13.30
2008,05,17,03,10,13.30
2008,05,17,03,11,13.20
2008,05,17,03,12,13.20
2008,05,17,03,13,13.20
2008,05,17,03,14,13.20
2008,05,17,03,15,13.20
2008,05,17,03,16,13.20
2008,05,17,03,17,13.20
2008,05,17,03,18,13.20
2008,05,17,03,19,13.30
2008,05,17,03,20,13.30
2008,05,17,03,21,13.30
2008,05,17,03,22,13.30
2008,05,17,03,23,13.30
2008,05,17,03,24,13.30
2008,05,17,03,25,13.40
2008,05,17,03,26,13.40
2008,05,17,03,27,13.50
2008,05,17,03,28,13.50
2008,05,17,03,29,13.50
2008,05,17,03,30,13.60
2008,05,17,03,31,13.60
2008,05,17,03,32,13.60
2008,05,17,03,33,13.70
2008,05,17,03,34,13.70
2008,05,17,03,35,13.80
2008,05,17,03,36,13.80
2008,05,17,03,37,13.80
2008,05,17,03,38,13.80
2008,05,17,03,39,13.90
2008,05,17,03,40,13.90
2008,05,17,03,41,14.00
2008,05,17,03,42,14.00
2008,05,17,03,43,14.10
2008,05,17,03,44,14.10
2008,05,17,03,45,14.20
2008,05,17,03,46,14.20
2008,05,17,03,47,14.30
2008,05,17,03,48,14.40
2008,05,17,03,49,14.50
2008,05,17,03,50,14.50
2008,05,17,03,51,14.50
2008,05,17,03,52,14.60
2008,05,17,03,53,14.60
2008,05,17,03,54,14.70
2008,05,17,03,55,14.70
2008,05,17,03,56,14.70
2008,05,17,03,57,14.80
2008,05,17,03,58,14.80
2008,05,17,03,59,14.80
2008,05,17,04,00,14.80
2008,05,17,04,01,14.80
2008,05,17,04,02,14.80
2008,05,17,04,03,14.80
2008,05,17,04,04,14.70
2008,05,17,04,05,14.70
2008,05,17,04,06,14.70
2008,05,17,04,07,14.60
2008,05,17,04,08,14.60
2008,05,17,04,09,14.60
2008,05,17,04,10,14.50
2008,05,17,04,11,14.50
2008,05,17,04,12,14.50
2008,05,17,04,13,14.50
2008,05,17,04,14,14.40
2008,05,17,04,15,14.40
2008,05,17,04,16,14.40
2008,05,17,04,17,14.40
2008,05,17,04,18,14.30
2008,05,17,04,19,14.30
2008,05,17,04,20,14.30
2008,05,17,04,21,14.30
2008,05,17,04,22,14.30
2008,05,17,04,23,14.30
2008,05,17,04,24,14.30
2008,05,17,04,25,14.20
2008,05,17,04,26,14.20
2008,05,17,04,27,14.20
2008,05,17,04,28,14.20
2008,05,17,04,29,14.20
2008,05,17,04,30,14.20
2008,05,17,04,31,14.10
2008,05,17,04,32,14.10
2008,05,17,04,33,14.10
2008,05,17,04,34,14.10
2008,05,17,04,35,14.10
2008,05,17,04,36,14.10
2008,05,17,04,37,14.10
2008,05,17,04,38,14.10
2008,05,17,04,39,14.10
2008,05,17,04,40,14.10
2008,05,17,04,41,14.10
2008,05,17,04,42,14.10
2008,05,17,04,43,14.10
2008,05,17,04,44,14.10
2008,05,17,04,45,14.10
2008,05,17,04,46,14.10
2008,05,17,04,47,14.20
2008,05,17,04,48,14.20
2008,05,17,04,49,14.20
2008,05,17,04,50,14.20
2008,05,17,04,51,14.20
2008,05,17,04,52,14.20
2008,05,17,04,53,14.20
2008,05,17,04,54,14.20
2008,05,17,04,55,14.20
2008,05,17,04,56,14.20
2008,05,17,04,57,14.10
2008,05,17,04,58,14.10
2008,05,17,04,59,14.10
2008,05,17,05,00,14.10
2008,05,17,05,01,14.10
2008,05,17,05,02,14.00
2008,05,17,05,03,14.00
2008,05,17,05,04,14.00
2008,05,17,05,05,14.00
2008,05,17,05,06,14.00
2008,05,17,05,07,13.90
2008,05,17,05,08,13.90
2008,05,17,05,09,13.90
2008,05,17,05,10,13.90
2008,05,17,05,11,13.80
2008,05,17,05,12,13.80
2008,05,17,05,13,13.80
2008,05,17,05,14,13.80
2008,05,17,05,15,13.80
2008,05,17,05,16,13.70
2008,05,17,05,17,13.70
2008,05,17,05,18,13.70
2008,05,17,05,19,13.70
2008,05,17,05,20,13.70
2008,05,17,05,21,13.70
2008,05,17,05,22,13.70
2008,05,17,05,23,13.70
2008,05,17,05,24,13.70
2008,05,17,05,25,13.70
2008,05,17,05,26,13.70
2008,05,17,05,27,13.70
2008,05,17,05,28,13.70
2008,05,17,05,29,13.70
2008,05,17,05,30,13.80
2008,05,17,05,31,13.80
2008,05,17,05,32,13.80
2008,05,17,05,33,13.90
2008,05,17,05,34,13.90
2008,05,17,05,35,13.90
2008,05,17,05,36,13.90
2008,05,17,05,37,13.90
2008,05,17,05,38,13.90
2008,05,17,05,39,13.90
2008,05,17,05,40,13.90
2008,05,17,05,41,13.90
2008,05,17,05,42,13.90
2008,05,17,05,43,13.90
2008,05,17,05,44,13.90
2008,05,17,05,45,13.90
2008,05,17,05,46,13.90
2008,05,17,05,47,13.90
2008,05,17,05,48,13.90
2008,05,17,05,49,13.90
2008,05,17,05,50,14.00
2008,05,17,05,51,14.00
2008,05,17,05,52,14.00
2008,05,17,05,53,14.00
2008,05,17,05,54,14.00
2008,05,17,05,55,14.00
2008,05,17,05,56,14.00
2008,05,17,05,57,14.00
2008,05,17,05,58,14.00
2008,05,17,05,59,14.00
2008,05,17,06,00,14.00
2008,05,17,06,01,14.00
2008,05,17,06,02,14.00
2008,05,17,06,03,14.00
2008,05,17,06,04,14.00
2008,05,17,06,05,14.00
2008,05,17,06,06,14.00
2008,05,17,06,07,14.10
2008,05,17,06,08,14.10
2008,05,17,06,09,14.10
2008,05,17,06,10,14.10
2008,05,17,06,11,14.20
2008,05,17,06,12,14.20
2008,05,17,06,13,14.20
2008,05,17,06,14,14.20
2008,05,17,06,15,14.30
2008,05,17,06,16,14.30
2008,05,17,06,17,14.40
2008,05,17,06,18,14.40
2008,05,17,06,19,14.50
2008,05,17,06,20,14.60
2008,05,17,06,21,14.60
2008,05,17,06,22,14.70
2008,05,17,06,23,14.80
2008,05,17,06,24,14.80
2008,05,17,06,25,14.90
2008,05,17,06,26,14.90
2008,05,17,06,27,15.00
2008,05,17,06,28,15.10
2008,05,17,06,29,15.20
2008,05,17,06,30,15.20
2008,05,17,06,31,15.30
2008,05,17,06,32,15.40
2008,05,17,06,33,15.50
2008,05,17,06,34,15.50
2008,05,17,06,35,15.60
2008,05,17,06,36,15.70
2008,05,17,06,37,15.80
2008,05,17,06,38,15.80
2008,05,17,06,39,15.90
2008,05,17,06,40,16.00
2008,05,17,06,41,16.10
2008,05,17,06,42,16.10
2008,05,17,06,43,16.20
2008,05,17,06,44,16.30
2008,05,17,06,45,16.30
2008,05,17,06,46,16.30
2008,05,17,06,47,16.40
2008,05,17,06,48,16.50
2008,05,17,06,49,16.60
2008,05,17,06,50,16.60
2008,05,17,06,51,16.70
2008,05,17,06,52,16.70
2008,05,17,06,53,16.80
2008,05,17,06,54,16.90
2008,05,17,06,55,16.90
2008,05,17,06,56,17.00
2008,05,17,06,57,17.10
2008,05,17,06,58,17.20
2008,05,17,06,59,17.30
2008,05,17,07,00,17.30
2008,05,17,07,01,17.40
2008,05,17,07,02,17.50
2008,05,17,07,03,17.50
2008,05,17,07,04,17.60
2008,05,17,07,05,17.70
2008,05,17,07,06,17.70
2008,05,17,07,07,17.80
2008,05,17,07,08,17.90
2008,05,17,07,09,17.90
2008,05,17,07,10,18.00
2008,05,17,07,11,18.10
2008,05,17,07,12,18.20
2008,05,17,07,13,18.20
2008,05,17,07,14,18.20
2008,05,17,07,15,18.30
2008,05,17,07,16,18.30
2008,05,17,07,17,18.30
2008,05,17,07,18,18.40
2008,05,17,07,19,18.40
2008,05,17,07,20,18.40
2008,05,17,07,21,18.40
2008,05,17,07,22,18.40
2008,05,17,07,23,18.40
2008,05,17,07,24,18.30
2008,05,17,07,25,18.20
2008,05,17,07,26,18.20
2008,05,17,07,27,18.20
2008,05,17,07,28,18.10
2008,05,17,07,29,18.20
2008,05,17,07,30,18.10
2008,05,17,07,31,18.10
2008,05,17,07,32,18.00
2008,05,17,07,33,17.90
2008,05,17,07,34,17.90
2008,05,17,07,35,17.90
2008,05,17,07,36,17.70
2008,05,17,07,37,17.60
2008,05,17,07,38,17.60
2008,05,17,07,39,17.50
2008,05,17,07,40,17.50
2008,05,17,07,41,17.40
2008,05,17,07,42,17.40
2008,05,17,07,43,17.30
2008,05,17,07,44,17.30
2008,05,17,07,45,17.30
2008,05,17,07,46,17.30
2008,05,17,07,47,17.20
2008,05,17,07,48,17.20
2008,05,17,07,49,17.20
2008,05,17,07,50,17.20
2008,05,17,07,51,17.20
2008,05,17,07,52,17.20
2008,05,17,07,53,17.30
2008,05,17,07,54,17.30
2008,05,17,07,55,17.30
2008,05,17,07,56,17.30
2008,05,17,07,57,17.40
2008,05,17,07,58,17.50
2008,05,17,07,59,17.50
2008,05,17,08,00,17.60
2008,05,17,08,01,17.70
2008,05,17,08,02,17.80
2008,05,17,08,03,17.80
2008,05,17,08,04,17.90
2008,05,17,08,05,18.00
2008,05,17,08,06,18.10
2008,05,17,08,07,18.20
2008,05,17,08,08,18.30
2008,05,17,08,09,18.40
2008,05,17,08,10,18.50
2008,05,17,08,11,18.60
2008,05,17,08,12,18.70
2008,05,17,08,13,18.80
2008,05,17,08,14,18.90
2008,05,17,08,15,19.00
2008,05,17,08,16,19.10
2008,05,17,08,17,19.20
2008,05,17,08,18,19.30
2008,05,17,08,19,19.40
2008,05,17,08,20,19.50
2008,05,17,08,21,19.60
2008,05,17,08,22,19.70
2008,05,17,08,23,19.70
2008,05,17,08,24,19.70
2008,05,17,08,25,19.70
2008,05,17,08,26,19.70
2008,05,17,08,27,19.70
2008,05,17,08,28,19.70
2008,05,17,08,29,19.70
2008,05,17,08,30,19.60
2008,05,17,08,31,19.70
2008,05,17,08,32,19.70
2008,05,17,08,33,19.70
2008,05,17,08,34,19.80
2008,05,17,08,35,19.70
2008,05,17,08,36,19.70
2008,05,17,08,37,19.80
2008,05,17,08,38,19.80
2008,05,17,08,39,19.80
2008,05,17,08,40,19.80
2008,05,17,08,41,19.90
2008,05,17,08,42,19.90
2008,05,17,08,43,19.90
2008,05,17,08,44,19.80
2008,05,17,08,45,19.80
2008,05,17,08,46,19.80
2008,05,17,08,47,19.80
2008,05,17,08,48,19.90
2008,05,17,08,49,19.90
2008,05,17,08,50,20.00
2008,05,17,08,51,20.10
2008,05,17,08,52,20.10
2008,05,17,08,53,20.10
2008,05,17,08,54,20.20
2008,05,17,08,55,20.20
2008,05,17,08,56,20.30
2008,05,17,08,57,20.30
2008,05,17,08,58,20.20
2008,05,17,08,59,20.20
2008,05,17,09,00,20.30
2008,05,17,09,01,20.30
2008,05,17,09,02,20.20
2008,05,17,09,03,20.20
2008,05,17,09,04,20.10
2008,05,17,09,05,19.90
2008,05,17,09,06,19.90
2008,05,17,09,07,19.80
2008,05,17,09,08,19.70
2008,05,17,09,09,19.80
2008,05,17,09,10,19.80
2008,05,17,09,11,19.90
2008,05,17,09,12,19.90
2008,05,17,09,13,19.90
2008,05,17,09,14,19.80
2008,05,17,09,15,19.80
2008,05,17,09,16,19.80
2008,05,17,09,17,19.80
2008,05,17,09,18,19.80
2008,05,17,09,19,19.80
2008,05,17,09,20,19.90
2008,05,17,09,21,20.00
2008,05,17,09,22,20.20
2008,05,17,09,23,20.40
2008,05,17,09,24,20.50
2008,05,17,09,25,20.60
2008,05,17,09,26,20.70
2008,05,17,09,27,20.60
2008,05,17,09,28,20.60
2008,05,17,09,29,20.60
2008,05,17,09,30,20.60
2008,05,17,09,31,20.70
2008,05,17,09,32,20.80
2008,05,17,09,33,20.90
2008,05,17,09,34,21.00
2008,05,17,09,35,21.10
2008,05,17,09,36,21.10
2008,05,17,09,37,21.20
2008,05,17,09,38,21.30
2008,05,17,09,39,21.30
2008,05,17,09,40,21.40
2008,05,17,09,41,21.40
2008,05,17,09,42,21.50
2008,05,17,09,43,21.60
2008,05,17,09,44,21.40
2008,05,17,09,45,21.40
2008,05,17,09,46,21.40
2008,05,17,09,47,21.40
2008,05,17,09,48,21.30
2008,05,17,09,49,21.20
2008,05,17,09,50,21.20
2008,05,17,09,51,21.20
2008,05,17,09,52,21.30
2008,05,17,09,53,21.30
2008,05,17,09,54,21.30
2008,05,17,09,55,21.40
2008,05,17,09,56,21.50
2008,05,17,09,57,21.60
2008,05,17,09,58,21.60
2008,05,17,09,59,21.70
2008,05,17,10,00,21.80
2008,05,17,10,01,21.90
2008,05,17,10,02,22.00
2008,05,17,10,03,22.00
2008,05,17,10,04,21.90
2008,05,17,10,05,21.80
2008,05,17,10,06,21.70
2008,05,17,10,07,21.70
2008,05,17,10,08,21.70
2008,05,17,10,09,21.70
2008,05,17,10,10,21.60
2008,05,17,10,11,21.70
2008,05,17,10,12,21.70
2008,05,17,10,13,21.80
2008,05,17,10,14,21.80
2008,05,17,10,15,21.70
2008,05,17,10,16,21.70
2008,05,17,10,17,21.70
2008,05,17,10,18,21.80
2008,05,17,10,19,21.90
2008,05,17,10,20,21.90
2008,05,17,10,21,21.90
2008,05,17,10,22,21.90
2008,05,17,10,23,21.90
2008,05,17,10,24,21.90
2008,05,17,10,25,21.80
2008,05,17,10,26,21.80
2008,05,17,10,27,21.90
2008,05,17,10,28,21.90
2008,05,17,10,29,22.00
2008,05,17,10,30,22.00
2008,05,17,10,31,22.00
2008,05,17,10,32,22.10
2008,05,17,10,33,22.20
2008,05,17,10,34,22.20
2008,05,17,10,35,22.10
2008,05,17,10,36,22.10
2008,05,17,10,37,22.00
2008,05,17,10,38,22.00
2008,05,17,10,39,22.00
2008,05,17,10,40,22.10
2008,05,17,10,41,22.30
2008,05,17,10,42,22.40
2008,05,17,10,43,22.40
2008,05,17,10,44,22.50
2008,05,17,10,45,22.50
2008,05,17,10,46,22.50
2008,05,17,10,47,22.40
2008,05,17,10,48,22.50
2008,05,17,10,49,22.60
2008,05,17,10,50,22.60
2008,05,17,10,51,22.60
2008,05,17,10,52,22.60
2008,05,17,10,53,22.60
2008,05,17,10,54,22.70
2008,05,17,10,55,22.70
2008,05,17,10,56,22.80
2008,05,17,10,57,22.90
2008,05,17,10,58,22.90
2008,05,17,10,59,22.80
2008,05,17,11,00,22.80
2008,05,17,11,01,22.80
2008,05,17,11,02,22.80
2008,05,17,11,03,22.70
2008,05,17,11,04,22.70
2008,05,17,11,05,22.60
2008,05,17,11,06,22.60
2008,05,17,11,07,22.60
2008,05,17,11,08,22.70
2008,05,17,11,09,22.80
2008,05,17,11,10,22.60
2008,05,17,11,11,22.50
2008,05,17,11,12,22.50
2008,05,17,11,13,22.60
2008,05,17,11,14,22.80
2008,05,17,11,15,22.80
2008,05,17,11,16,22.80
2008,05,17,11,17,22.70
2008,05,17,11,18,22.60
2008,05,17,11,19,22.50
2008,05,17,11,20,22.60
2008,05,17,11,21,22.70
2008,05,17,11,22,22.80
2008,05,17,11,23,22.90
2008,05,17,11,24,22.90
2008,05,17,11,25,22.90
2008,05,17,11,26,23.10
2008,05,17,11,27,23.10
2008,05,17,11,28,23.00
2008,05,17,11,29,22.90
2008,05,17,11,30,22.80
2008,05,17,11,31,22.70
2008,05,17,11,32,22.70
2008,05,17,11,33,22.70
2008,05,17,11,34,22.80
2008,05,17,11,35,22.80
2008,05,17,11,36,22.90
2008,05,17,11,37,22.80
2008,05,17,11,38,22.80
2008,05,17,11,39,22.80
2008,05,17,11,40,22.90
2008,05,17,11,41,22.90
2008,05,17,11,42,22.80
2008,05,17,11,43,22.70
2008,05,17,11,44,22.60
2008,05,17,11,45,22.50
2008,05,17,11,46,22.40
2008,05,17,11,47,22.40
2008,05,17,11,48,22.40
2008,05,17,11,49,22.40
2008,05,17,11,50,22.20
2008,05,17,11,51,22.10
2008,05,17,11,52,22.10
2008,05,17,11,53,22.10
2008,05,17,11,54,22.10
2008,05,17,11,55,22.10
2008,05,17,11,56,22.30
2008,05,17,11,57,22.30
2008,05,17,11,58,22.40
2008,05,17,11,59,22.50
2008,05,17,12,00,22.60
2008,05,17,12,01,22.50
2008,05,17,12,02,22.50
2008,05,17,12,03,22.40
2008,05,17,12,04,22.40
2008,05,17,12,05,22.50
2008,05,17,12,06,22.50
2008,05,17,12,07,22.40
2008,05,17,12,08,22.50
2008,05,17,12,09,22.50
2008,05,17,12,10,22.60
2008,05,17,12,11,22.60
2008,05,17,12,12,22.60
2008,05,17,12,13,22.60
2008,05,17,12,14,22.70
2008,05,17,12,15,22.80
2008,05,17,12,16,22.80
2008,05,17,12,17,22.80
2008,05,17,12,18,22.80
2008,05,17,12,19,22.80
2008,05,17,12,20,22.80
2008,05,17,12,21,22.90
2008,05,17,12,22,22.90
2008,05,17,12,23,22.90
2008,05,17,12,24,23.00
2008,05,17,12,25,23.10
2008,05,17,12,26,22.90
2008,05,17,12,27,22.90
2008,05,17,12,28,22.90
2008,05,17,12,29,22.90
2008,05,17,12,30,22.90
2008,05,17,12,31,22.90
2008,05,17,12,32,22.90
2008,05,17,12,33,22.90
2008,05,17,12,34,22.90
2008,05,17,12,35,22.80
2008,05,17,12,36,22.80
2008,05,17,12,37,22.80
2008,05,17,12,38,22.90
2008,05,17,12,39,22.90
2008,05,17,12,40,22.90
2008,05,17,12,41,22.90
2008,05,17,12,42,22.90
2008,05,17,12,43,23.00
2008,05,17,12,44,23.10
2008,05,17,12,45,23.10
2008,05,17,12,46,23.10
2008,05,17,12,47,23.00
2008,05,17,12,48,22.90
2008,05,17,12,49,22.90
2008,05,17,12,50,22.90
2008,05,17,12,51,22.90
2008,05,17,12,52,22.90
2008,05,17,12,53,23.00
2008,05,17,12,54,23.20
2008,05,17,12,55,23.20
2008,05,17,12,56,23.30
2008,05,17,12,57,23.40
2008,05,17,12,58,23.50
2008,05,17,12,59,23.70
2008,05,17,13,00,23.70
2008,05,17,13,01,23.80
2008,05,17,13,02,23.70
2008,05,17,13,03,23.70
2008,05,17,13,04,23.70
2008,05,17,13,05,23.60
2008,05,17,13,06,23.50
2008,05,17,13,07,23.50
2008,05,17,13,08,23.60
2008,05,17,13,09,23.60
2008,05,17,13,10,23.70
2008,05,17,13,11,23.70
2008,05,17,13,12,23.70
2008,05,17,13,13,23.80
2008,05,17,13,14,23.80
2008,05,17,13,15,23.80
2008,05,17,13,16,23.80
2008,05,17,13,17,23.80
2008,05,17,13,18,23.70
2008,05,17,13,19,23.80
2008,05,17,13,20,23.80
2008,05,17,13,21,23.90
2008,05,17,13,22,24.00
2008,05,17,13,23,24.10
2008,05,17,13,24,24.30
2008,05,17,13,25,24.40
2008,05,17,13,26,24.50
2008,05,17,13,27,24.60
2008,05,17,13,28,24.50
2008,05,17,13,29,24.30
2008,05,17,13,30,24.10
2008,05,17,13,31,23.90
2008,05,17,13,32,23.90
2008,05,17,13,33,23.90
2008,05,17,13,34,24.10
2008,05,17,13,35,24.10
2008,05,17,13,36,24.10
2008,05,17,13,37,24.10
2008,05,17,13,38,24.20
2008,05,17,13,39,24.20
2008,05,17,13,40,24.10
2008,05,17,13,41,24.10
2008,05,17,13,42,24.20
2008,05,17,13,43,24.30
2008,05,17,13,44,24.40
2008,05,17,13,45,24.40
2008,05,17,13,46,24.40
2008,05,17,13,47,24.40
2008,05,17,13,48,24.40
2008,05,17,13,49,24.40
2008,05,17,13,50,24.50
2008,05,17,13,51,24.50
2008,05,17,13,52,24.50
2008,05,17,13,53,24.60
2008,05,17,13,54,24.70
2008,05,17,13,55,24.60
2008,05,17,13,56,24.40
2008,05,17,13,57,24.50
2008,05,17,13,58,24.70
2008,05,17,13,59,24.70
2008,05,17,14,00,24.80
2008,05,17,14,01,24.90
2008,05,17,14,02,25.00
2008,05,17,14,03,25.30
2008,05,17,14,04,25.40
2008,05,17,14,05,25.50
2008,05,17,14,06,25.40
2008,05,17,14,07,25.40
2008,05,17,14,08,25.30
2008,05,17,14,09,25.30
2008,05,17,14,10,25.40
2008,05,17,14,11,25.30
2008,05,17,14,12,25.20
2008,05,17,14,13,25.30
2008,05,17,14,14,25.40
2008,05,17,14,15,25.40
2008,05,17,14,16,25.50
2008,05,17,14,17,25.60
2008,05,17,14,18,25.60
2008,05,17,14,19,25.60
2008,05,17,14,20,25.60
2008,05,17,14,21,25.60
2008,05,17,14,22,25.70
2008,05,17,14,23,25.70
2008,05,17,14,24,25.80
2008,05,17,14,25,25.90
2008,05,17,14,26,25.70
2008,05,17,14,27,25.70
2008,05,17,14,28,25.80
2008,05,17,14,29,25.90
2008,05,17,14,30,25.90
2008,05,17,14,31,25.90
2008,05,17,14,32,25.80
2008,05,17,14,33,25.70
2008,05,17,14,34,25.70
2008,05,17,14,35,25.70
2008,05,17,14,36,25.80
2008,05,17,14,37,25.90
2008,05,17,14,38,26.00
2008,05,17,14,39,26.20
2008,05,17,14,40,26.30
2008,05,17,14,41,26.40
2008,05,17,14,42,26.30
2008,05,17,14,43,26.20
2008,05,17,14,44,25.90
2008,05,17,14,45,25.80
2008,05,17,14,46,25.50
2008,05,17,14,47,25.20
2008,05,17,14,48,25.00
2008,05,17,14,49,24.80
2008,05,17,14,50,24.50
2008,05,17,14,51,24.30
2008,05,17,14,52,24.10
2008,05,17,14,53,24.10
2008,05,17,14,54,24.20
2008,05,17,14,55,24.30
2008,05,17,14,56,24.40
2008,05,17,14,57,24.40
2008,05,17,14,58,24.50
2008,05,17,14,59,24.60
2008,05,17,15,00,24.80
2008,05,17,15,01,24.90
2008,05,17,15,02,24.90
2008,05,17,15,03,25.10
2008,05,17,15,04,25.10
2008,05,17,15,05,25.10
2008,05,17,15,06,25.00
2008,05,17,15,07,24.90
2008,05,17,15,08,24.70
2008,05,17,15,09,24.60
2008,05,17,15,10,24.70
2008,05,17,15,11,24.70
2008,05,17,15,12,24.80
2008,05,17,15,13,24.90
2008,05,17,15,14,24.90
2008,05,17,15,15,24.90
2008,05,17,15,16,24.90
2008,05,17,15,17,24.90
2008,05,17,15,18,24.90
2008,05,17,15,19,25.00
2008,05,17,15,20,24.90
2008,05,17,15,21,24.90
2008,05,17,15,22,24.70
2008,05,17,15,23,24.50
2008,05,17,15,24,24.40
2008,05,17,15,25,24.20
2008,05,17,15,26,24.10
2008,05,17,15,27,24.10
2008,05,17,15,28,23.90
2008,05,17,15,29,23.90
2008,05,17,15,30,23.90
2008,05,17,15,31,24.00
2008,05,17,15,32,24.10
2008,05,17,15,33,23.90
2008,05,17,15,34,23.90
2008,05,17,15,35,23.80
2008,05,17,15,36,23.90
2008,05,17,15,37,24.00
2008,05,17,15,38,24.10
2008,05,17,15,39,24.10
2008,05,17,15,40,24.10
2008,05,17,15,41,24.10
2008,05,17,15,42,24.10
2008,05,17,15,43,24.10
2008,05,17,15,44,24.10
2008,05,17,15,45,24.10
2008,05,17,15,46,24.10
2008,05,17,15,47,24.10
2008,05,17,15,48,23.90
2008,05,17,15,49,23.90
2008,05,17,15,50,23.80
2008,05,17,15,51,23.80
2008,05,17,15,52,23.80
2008,05,17,15,53,23.80
2008,05,17,15,54,23.90
2008,05,17,15,55,23.90
2008,05,17,15,56,24.10
2008,05,17,15,57,24.10
2008,05,17,15,58,24.10
2008,05,17,15,59,24.20
2008,05,17,16,00,24.30
2008,05,17,16,01,24.30
2008,05,17,16,02,24.40
2008,05,17,16,03,24.40
2008,05,17,16,04,24.40
2008,05,17,16,05,24.20
2008,05,17,16,06,24.10
2008,05,17,16,07,24.10
2008,05,17,16,08,24.10
2008,05,17,16,09,24.10
2008,05,17,16,10,24.10
2008,05,17,16,11,24.20
2008,05,17,16,12,24.40
2008,05,17,16,13,24.60
2008,05,17,16,14,24.60
2008,05,17,16,15,24.60
2008,05,17,16,16,24.60
2008,05,17,16,17,24.60
2008,05,17,16,18,24.60
2008,05,17,16,19,24.60
2008,05,17,16,20,24.70
2008,05,17,16,21,24.70
2008,05,17,16,22,24.80
2008,05,17,16,23,24.90
2008,05,17,16,24,25.00
2008,05,17,16,25,24.90
2008,05,17,16,26,24.80
2008,05,17,16,27,24.50
2008,05,17,16,28,24.40
2008,05,17,16,29,24.40
2008,05,17,16,30,24.30
2008,05,17,16,31,24.20
2008,05,17,16,32,24.00
2008,05,17,16,33,23.90
2008,05,17,16,34,23.80
2008,05,17,16,35,23.60
2008,05,17,16,36,23.40
2008,05,17,16,37,23.30
2008,05,17,16,38,23.30
2008,05,17,16,39,23.20
2008,05,17,16,40,23.10
2008,05,17,16,41,23.10
2008,05,17,16,42,22.90
2008,05,17,16,43,22.90
2008,05,17,16,44,22.90
2008,05,17,16,45,22.90
2008,05,17,16,46,22.90
2008,05,17,16,47,22.80
2008,05,17,16,48,22.80
2008,05,17,16,49,22.60
2008,05,17,16,50,22.40
2008,05,17,16,51,22.30
2008,05,17,16,52,22.30
2008,05,17,16,53,22.20
2008,05,17,16,54,22.20
2008,05,17,16,55,22.30
2008,05,17,16,56,22.20
2008,05,17,16,57,22.30
2008,05,17,16,58,22.20
2008,05,17,16,59,22.10
2008,05,17,17,00,22.00
2008,05,17,17,01,22.00
2008,05,17,17,02,22.10
2008,05,17,17,03,22.20
2008,05,17,17,04,22.20
2008,05,17,17,05,22.30
2008,05,17,17,06,22.40
2008,05,17,17,07,22.50
2008,05,17,17,08,22.60
2008,05,17,17,09,22.70
2008,05,17,17,10,22.90
2008,05,17,17,11,22.90
2008,05,17,17,12,23.00
2008,05,17,17,13,23.10
2008,05,17,17,14,23.10
2008,05,17,17,15,23.30
2008,05,17,17,16,23.30
2008,05,17,17,17,23.40
2008,05,17,17,18,23.60
2008,05,17,17,19,23.70